Location: Moscow
(55.7500°N, 37.5830°E)
Time: 05:07:35
(UTC+03:00)

FENGYUN 1C DEB - Visible Passes

Search period start: 01 July 2022 00:00
Search period end: 11 July 2022 00:00
Orbit: 735 x 862 km, 99.3° (Epoch: 20 June)

Date Brightness Start Highest point End Pass type
(mag) Time Alt. Az. Time Alt. Az. Time Alt. Az.
01 Jul ? 23:03:09 10° SW 23:06:58 22° W 23:10:47 10° NW visible
02 Jul ? 22:35:12 10° SSW 22:39:42 34° W 22:44:12 10° NNW visible
04 Jul ? 23:22:47 10° SW 23:25:50 16° W 23:28:52 10° NW visible
05 Jul ? 22:54:24 10° SSW 22:58:29 25° W 23:02:34 10° NW visible
06 Jul ? 22:26:37 10° SSW 22:31:15 40° W 22:35:53 10° NNW visible
07 Jul ? 23:43:00 10° WSW 23:44:44 12° W 23:46:28 10° WNW visible
08 Jul ? 23:13:50 10° SW 23:17:19 19° W 23:20:47 10° NW visible
09 Jul ? 22:45:42 10° SSW 22:49:59 30° W 22:54:19 10° NW visible
10 Jul ? 22:18:02 10° S 22:22:46 47° W 22:27:33 10° NNW visible
